Regional Weather Roundup
Issued by NWS Wilmington, NC

Current Version | Previous Version | Graphics & Text | Print | Product List | Glossary On
Versions: 1 2 3 4 5 6 7 8 9 10 11 12 13 14 15 16 17 18 19 20 21 22 23 24 25 26 27 28 29 30 31 32 33 34 35 36 37 38 39 40 41 42 43 44 45 46 47 48 49 50
000
ASUS42 KILM 222014
RWRILM
RWRILM
REGIONAL HOURLY WEATHER ROUNDUP
NATIONAL WEATHER SERVICE WILMINGTON NC
300 PM EST SAT FEB 22 2020

NOTE: "FAIR" INDICATES FEW OR NO CLOUDS BELOW 12,000 FEET WITH NO
SIGNIFICANT WEATHER AND/OR OBSTRUCTIONS TO VISIBILITY.

...............WFO WILMINGTON COUNTY WARNING AREA...............

......COASTAL NC AND SC COUNTIES......

CITY           SKY/WX    TMP DP  RH WIND       PRES   REMARKS
WILMINGTON     FAIR      53  19  26 W6        30.38F
N MYRTLE BEACH FAIR      49  29  46 S7        30.39F
MYRTLE BEACH   FAIR      47  29  49 S6        30.40F

......INLAND NC AND SC COUNTIES.......

CITY           SKY/WX    TMP DP  RH WIND       PRES   REMARKS
LUMBERTON      NOT AVBL
ELIZABETHTOWN  FAIR      53  21  29 S5        30.39S
WHITEVILLE     NOT AVBL
FLORENCE       FAIR      54  19  25 VRB5      30.39F
DARLINGTON     FAIR      52  26  36 VRB6      30.39F
KINGSTREE      FAIR      52  21  30 CALM      30.40F
HARTSVILLE     FAIR      54  23  30 VRB3      30.38F
BENNETTSVILLE  FAIR      52  27  37 CALM      30.39F
CONWAY         FAIR      52  21  30 CALM      30.40F
GEORGETOWN     FAIR      52  19  28 E3        30.40F
MARION         NOT AVBL

....................REST OF NORTH CAROLINA......................

.........EASTERN NC.........

CITY           SKY/WX    TMP DP  RH WIND       PRES   REMARKS
CAPE HATTERAS  FAIR      47  29  49 VRB6      30.37F
JACKSONVILLE   FAIR      51  22  31 CALM      30.38F
MOREHEAD CITY  FAIR      52  22  30 N5        30.37F
KENANSVILLE    FAIR      50  19  29 CALM      30.38F
NEW BERN       FAIR      50  21  32 N5        30.38F
ELIZABETH CITY FAIR      49  22  34 CALM      30.36F

.........CENTRAL NC.........

CITY           SKY/WX    TMP DP  RH WIND       PRES   REMARKS
RALEIGH DURHAM FAIR      52  24  33 SW7       30.35F
ROCKY MOUNT    FAIR      49  27  42 SW7       30.37F
ROANOKE RAPIDS NOT AVBL
FAYETTEVILLE   FAIR      53  18  25 SW6       30.37F
HOFFMAN        NOT AVBL

.........WESTERN NC.........

CITY           SKY/WX    TMP DP  RH WIND       PRES   REMARKS
CHARLOTTE      FAIR      53  20  27 SW7       30.36F
GREENSBORO     FAIR      51  18  27 SW9       30.32F
HICKORY        NOT AVBL
BOONE          NOT AVBL
ASHEVILLE      NOT AVBL

.....................REST OF SOUTH CAROLINA.....................

.........EASTERN SC.........

CITY           SKY/WX    TMP DP  RH WIND       PRES   REMARKS
CHARLESTON     FAIR      55  17  22 VRB5      30.39F
BEAUFORT MCAS  FAIR      53  22  29 CALM      30.40F
HILTON HEAD    SUNNY     50  19  29 E7        30.42F

.........CENTRAL SC.........

CITY           SKY/WX    TMP DP  RH WIND       PRES   REMARKS
COLUMBIA       FAIR      54  20  26 VRB6      30.38F
ORANGEBURG     FAIR      51  21  30 CALM      30.40F
SUMTER SHAW    NOT AVBL

.........WESTERN SC.........

CITY           SKY/WX    TMP DP  RH WIND       PRES   REMARKS
GREENVILLE     NOT AVBL
ROCK HILL      FAIR      53  20  27 VRB5      30.36F
ANDERSON       FAIR      55  25  31 W8        30.37F
CLEMSON        NOT AVBL
GREENWOOD      FAIR      53  23  31 VRB5      30.39F


...................COASTAL AND OFFSHORE REPORTS..................

................LOCAL PIERS AND NC RESERVE................


STATION/POSITION TIME  SKY/WX   TEMP    WIND        PRES    VSBY
                                AIR SEA DIR/SP/G
                 (UTC)          (F)     (DEG/KT/KT) (MB)    (MI)
JOHNY MRCER PIER 1924            46 51  100/  3/  4 1028.2
NC RESRV MASNBRO NOT AVBL
OCEAN CREST PIER NOT AVBL
SPRINGMAID  PIER 1924            44                   N/A


................COASTAL AND OFFSHORE BUOYS................


STATION/POSITION TIME  SKY/WX   TEMP    WIND        PRES    VSBY
                                AIR SEA DIR/SP/G
                 (UTC)          (F)     (DEG/KT/KT) (MB)    (MI)
DIMNDSHOAL 41025 2000            44     360/ 14/ 16 1027.6
CAPE LOOKOUT     2000            47      10/ 11/ 13 1028.2F
ONSLOW BAY 41036 NOT AVBL
ONSLOW BAY 41064 1908            47 65   30/ 12/ 17 1028.6F
ONSLOW BAY 41159 2000               65                N/A
WVE H/P(F/S)=  5/10 SWL H/P/D(F/S/D)=  3/ 90/12

MASNBO INL 41110 1940               54                N/A
WVE H/P(F/S)=  3/11 SWL H/P/D(F/S/D)=  2/110/11

WILM HARBR 41108 1900               52                N/A
WVE H/P(F/S)=  3/13 SWL H/P/D(F/S/D)=  2/150/13

27SE WRITB 41037 1908            42 60   10/ 10/ 16 1027.3F
FRYING PAN 41013 2000            49 63   10/ 12/ 17 1028.5
SUNST NRSH 41024 1908            44 54  180/  6/  8 1030.0F
CAPRS NRSH 41029 1908            45 53   70/ 12/ 16 1031.8F
EDISTO     41004 2000               70              1028.6


..........OFFSHORE BUOYS BEYOND 100 NM OFFSHORE...........
.....IN A TRIANGLE---HAT TO BERMUDA TO BAHAMAS TO HAT.....


STATION/POSITION TIME  SKY/WX   TEMP    WIND        PRES    VSBY
                                AIR SEA DIR/SP/G
                 (UTC)          (F)     (DEG/KT/KT) (MB)    (MI)
150E HAT   41001 NOT AVBL
W BERMUDA  41048 2000               69   20/ 19/ 25 1021.7
ATLANTIC S 41049 2000                    10/ 19/ 25 1013.3
E BAHAMAS  41046 2000            72 78  280/ 10/ 14 1013.4
NE BAHAMAS 41047 2000               73   30/ 21/ 29 1019.0
120E CANVRL41010 1950            66      20/ 21/ 27 1023.9
WVE H/P(F/S)= 15/12 SWL H/P/D(F/S/D)= 11/ 50/12


END



USA.gov is the U.S. government's official web portal to all federal, state and local government web resources and services.